World > North America > United States > Arkansas
Hourly Weather in Elk Ranch, ArkansasElk Ranch, Arkansas Hourly Weather

Elk Ranch, AR Hourly Weather

Hourly Weather Elk Ranch, ArkansasHourly Weather in Elk Ranch, AR
Lat: 36.44N, Lon: 93.74W  ICAO: KROG
Web Search

Helpful Tip: You can add this page to Bookmarks by pressing the Ctrl key & d key at the same time. Mac users press command & d.

Feedback

Elk Ranch Hourly Weather

36 Hour Weather Scroll   °F Click to change Elk Ranch hourly weather to Imperial units.Click to change Elk Ranch hourly weather to Metric units. °C
Currently, Clear, temperature is 35°F2°C, dew point 17°F-8°C, humidity 48%. Wind direction is N at 6 mph10 km/h with visibility of 10.00 mi16 km. Barometric pressure is 30.33 in1027 mb.

Dec 06
6:00 PM

Dec 06
7:00 PM

Dec 06
8:00 PM

Dec 06
9:00 PM

Dec 06
10:00 PM

Dec 06
11:00 PM

Dec 07
MIDNIGHT

Dec 07
1:00 AM

Dec 07
2:00 AM

Dec 07
3:00 AM

Dec 07
4:00 AM

Dec 07
5:00 AM

Dec 07
6:00 AM

Dec 07
7:00 AM

Dec 07
8:00 AM

Dec 07
9:00 AM

Dec 07
10:00 AM

Dec 07
11:00 AM

Dec 07
NOON

Dec 07
1:00 PM

Dec 07
2:00 PM

Dec 07
3:00 PM

Dec 07
4:00 PM

Dec 07
5:00 PM

Dec 07
6:00 PM

Dec 07
7:00 PM

Dec 07
8:00 PM

Dec 07
9:00 PM

Dec 07
10:00 PM

Dec 07
11:00 PM

Dec 08
MIDNIGHT

Dec 08
1:00 AM

Dec 08
2:00 AM

Dec 08
6:00 AM

Dec 08
7:00 AM

Dec 08
8:00 AM
Cloudy Cloudy Cloudy Cloudy Cloudy Cloudy Cloudy Cloudy Clear Clear Clear Clear Clear Clear Clear Clear Clear Clear Clear Clear Clear Clear Clear Clear Clear Clear Clear Clear Clear Partly Cloudy Partly Cloudy Partly Cloudy Partly Cloudy Partly Cloudy Partly Cloudy Clear
Cloudy Cloudy Cloudy Cloudy Cloudy Cloudy Cloudy Cloudy Clear Clear Clear Clear Clear Clear Clear Clear Clear Clear Clear Clear Clear Clear Clear Clear Clear Clear Clear Clear Clear Partly Cloudy Partly Cloudy Partly Cloudy Partly Cloudy Partly Cloudy Partly Cloudy Clear
42°F6°C 41°F5°C 39°F4°C 38°F3°C 37°F3°C 36°F2°C 35°F2°C 35°F2°C 34°F1°C 34°F1°C 34°F1°C 34°F1°C 34°F1°C 37°F3°C 40°F4°C 43°F6°C 47°F8°C 51°F11°C 55°F13°C 57°F14°C 58°F14°C 60°F16°C 58°F14°C 57°F14°C 55°F13°C 54°F12°C 52°F11°C 51°F11°C 51°F11°C 50°F10°C 50°F10°C 51°F11°C 52°F11°C 53°F12°C 58°F14°C 62°F17°C
- - - - - - - - - - - - - - - - - - - - - - - - - - - - - - - - - - - -
0% 0% 0% 0% 0% 0% 0% 4% 4% 4% 4% 4% 4% 2% 2% 2% 2% 2% 2% 0% 0% 0% 0% 0% 0% 2% 2% 2% 2% 2% 2% 4% 4% 4% 5% 5%
25°F-4°C 26°F-3°C 26°F-3°C 27°F-3°C 27°F-3°C 28°F-2°C 28°F-2°C 28°F-2°C 28°F-2°C 28°F-2°C 28°F-2°C 29°F-2°C 29°F-2°C 30°F-1°C 32°F0°C 33°F1°C 33°F1°C 34°F1°C 34°F1°C 34°F1°C 34°F1°C 34°F1°C 34°F1°C 35°F2°C 35°F2°C 36°F2°C 37°F3°C 38°F3°C 39°F4°C 39°F4°C 40°F4°C 42°F6°C 43°F6°C 45°F7°C 46°F8°C 46°F8°C
51% 55% 59% 64% 67% 72% 75% 75% 78% 78% 78% 82% 82% 76% 73% 68% 58% 52% 45% 42% 40% 38% 40% 43% 47% 50% 56% 61% 63% 66% 68% 71% 71% 74% 64% 56%
SE SE SE SE SSE SSE SSE SSE SSE SSE SSE SE SE SE ESE ESE ESE ESE ESE SE SE SE SE SE SE SE SE SE SE SE SE SSE S S S SW
5 mph 5 mph 6 mph 6 mph 6 mph 4 mph 4 mph 4 mph 3 mph 3 mph 3 mph 2 mph 2 mph 2 mph 4 mph 4 mph 4 mph 7 mph 7 mph 7 mph 7 mph 7 mph 7 mph 7 mph 7 mph 7 mph 13 mph 13 mph 13 mph 16 mph 16 mph 16 mph 20 mph 20 mph 20 mph 17 mph
10 mi16 km 10 mi16 km 10 mi16 km 10 mi16 km 10 mi16 km 10 mi16 km 10 mi16 km 10 mi16 km 10 mi16 km 10 mi16 km 10 mi16 km 10 mi16 km 10 mi16 km 10 mi16 km 10 mi16 km 10 mi16 km 10 mi16 km 10 mi16 km 10 mi16 km 10 mi16 km 10 mi16 km 10 mi16 km 10 mi16 km 10 mi16 km 10 mi16 km 10 mi16 km 10 mi16 km 10 mi16 km 10 mi16 km 10 mi16 km 10 mi16 km 10 mi16 km 10 mi16 km 10 mi16 km 10 mi16 km 10 mi16 km
Hour (CST)
Weather
Clouds
Temperature
Precip. Type
POP
Dewpoint
Humidity
Wind Direction
Wind Speed
Visibility
POP = Probability of Precipitation. ** Indicates missing data/values from model statistics.

24 Hour Forecast

Tonight - Clear. Lows in the mid 20s. East winds up to 10 mph with gusts to around 20 mph.
Tuesday - Partly cloudy. Highs in the mid 40s. Southeast winds around 10 mph with gusts to around 20 mph.

48 Hour Forecast API Feed


Mon, Dec 6
6:00 pm

Mon, Dec 6
7:00 pm

Mon, Dec 6
8:00 pm

Mon, Dec 6
9:00 pm

Mon, Dec 6
10:00 pm

Mon, Dec 6
11:00 pm

Tue, Dec 7
Midnight

Tue, Dec 7
1:00 am

Tue, Dec 7
2:00 am

Tue, Dec 7
3:00 am

Tue, Dec 7
4:00 am

Tue, Dec 7
5:00 am

Tue, Dec 7
6:00 am

Tue, Dec 7
7:00 am

Tue, Dec 7
8:00 am

Tue, Dec 7
9:00 am

Tue, Dec 7
10:00 am

Tue, Dec 7
11:00 am

Tue, Dec 7
Noon

Tue, Dec 7
1:00 pm

Tue, Dec 7
2:00 pm

Tue, Dec 7
3:00 pm

Tue, Dec 7
4:00 pm

Tue, Dec 7
5:00 pm

Tue, Dec 7
6:00 pm

Tue, Dec 7
7:00 pm

Tue, Dec 7
8:00 pm

Tue, Dec 7
9:00 pm

Tue, Dec 7
10:00 pm

Tue, Dec 7
11:00 pm

Wed, Dec 8
Midnight

Wed, Dec 8
1:00 am

Wed, Dec 8
2:00 am

Wed, Dec 8
3:00 am

Wed, Dec 8
4:00 am

Wed, Dec 8
5:00 am

Wed, Dec 8
6:00 am

Wed, Dec 8
7:00 am

Wed, Dec 8
8:00 am

Wed, Dec 8
9:00 am

Wed, Dec 8
10:00 am

Wed, Dec 8
11:00 am

Wed, Dec 8
Noon

Wed, Dec 8
1:00 pm

Wed, Dec 8
2:00 pm

Wed, Dec 8
3:00 pm

Wed, Dec 8
4:00 pm

Wed, Dec 8
5:00 pm
ClearClearClearClearClearClearClearClearClearClearClearClearClearClearSunnySunnySunnySunnyPartly CloudyPartly CloudySunnySunnySunnyClearClearPartly CloudyPartly CloudyClearClearCloudyCloudyCloudyClearClearClearClearClearClearSunnySunnySunnySunnySunnySunnySunnySunnySunnyClear
Clear Clear Clear Clear Clear Clear Clear Clear Clear Clear Clear Clear Clear Clear Sunny Sunny Sunny Sunny Partly cloudy Partly cloudy Sunny Sunny Sunny Clear Clear Partly cloudy Partly cloudy Clear Clear Cloudy Cloudy Cloudy Clear Clear Clear Clear Clear Clear Sunny Sunny Sunny Sunny Sunny Sunny Sunny Sunny Sunny Clear
41°F
5°C
38°F
3°C
32°F
-0°C
31°F
-1°C
30°F
-1°C
30°F
-1°C
29°F
-2°C
28°F
-2°C
28°F
-2°C
28°F
-2°C
28°F
-2°C
27°F
-3°C
27°F
-3°C
27°F
-3°C
27°F
-3°C
29°F
-2°C
34°F
1°C
39°F
4°C
41°F
5°C
45°F
7°C
47°F
9°C
48°F
9°C
47°F
9°C
46°F
8°C
41°F
5°C
39°F
4°C
38°F
4°C
38°F
3°C
37°F
3°C
38°F
3°C
38°F
4°C
39°F
4°C
38°F
4°C
37°F
3°C
37°F
3°C
36°F
2°C
35°F
2°C
35°F
1°C
34°F
1°C
36°F
2°C
42°F
6°C
50°F
10°C
55°F
13°C
58°F
14°C
58°F
14°C
58°F
15°C
59°F
15°C
60°F
16°C
20°F
-7°C
21°F
-6°C
16°F
-9°C
17°F
-9°C
17°F
-8°C
17°F
-8°C
17°F
-9°C
17°F
-9°C
17°F
-8°C
17°F
-8°C
17°F
-8°C
17°F
-9°C
16°F
-9°C
16°F
-9°C
16°F
-9°C
16°F
-9°C
15°F
-9°C
16°F
-9°C
15°F
-9°C
16°F
-9°C
18°F
-8°C
20°F
-7°C
22°F
-6°C
26°F
-3°C
26°F
-4°C
25°F
-4°C
25°F
-4°C
25°F
-4°C
25°F
-4°C
25°F
-4°C
26°F
-4°C
26°F
-3°C
26°F
-3°C
26°F
-3°C
27°F
-3°C
27°F
-3°C
27°F
-3°C
27°F
-3°C
27°F
-3°C
28°F
-2°C
29°F
-2°C
33°F
0°C
33°F
1°C
34°F
1°C
32°F
0°C
33°F
0°C
34°F
1°C
41°F
5°C
30.3 in
1026 mb
30.33 in
1027 mb
30.33 in
1027 mb
30.36 in
1028 mb
30.36 in
1028 mb
30.33 in
1027 mb
30.33 in
1027 mb
30.33 in
1027 mb
30.3 in
1026 mb
30.27 in
1025 mb
30.24 in
1024 mb
30.21 in
1023 mb
30.21 in
1023 mb
30.21 in
1023 mb
30.21 in
1023 mb
30.18 in
1022 mb
30.18 in
1022 mb
30.15 in
1021 mb
30.12 in
1020 mb
30.06 in
1018 mb
30 in
1016 mb
29.97 in
1015 mb
29.94 in
1014 mb
29.97 in
1015 mb
30 in
1016 mb
30 in
1016 mb
30.03 in
1017 mb
30.03 in
1017 mb
30.03 in
1017 mb
29.97 in
1015 mb
30 in
1016 mb
30 in
1016 mb
30 in
1016 mb
30 in
1016 mb
30 in
1016 mb
30 in
1016 mb
30 in
1016 mb
30.03 in
1017 mb
30.03 in
1017 mb
30.03 in
1017 mb
30.06 in
1018 mb
30.06 in
1018 mb
30.03 in
1017 mb
30 in
1016 mb
29.94 in
1014 mb
29.94 in
1014 mb
29.91 in
1013 mb
29.88 in
1012 mb
43%50%52%55%57%58%60%61%61%62%63%64%64%64%63%58%46%38%34%30%31%33%36%44%53%57%58%59%60%60%59%60%61%64%67%69%73%74%75%71%59%50%45%40%38%38%39%49%
NNENNENNENNENEENEENEEEESEESEESEESESEESEESESESESSESSESSSSSSSSWSSSESSEWSWSSWSSWSSWWNNWSSESESEESEEEESEESESESEESE
5 mph
8 km/h
4 mph
6 km/h
4 mph
6 km/h
3 mph
5 km/h
4 mph
6 km/h
4 mph
6 km/h
3 mph
5 km/h
4 mph
6 km/h
4 mph
6 km/h
4 mph
7 km/h
4 mph
6 km/h
5 mph
8 km/h
4 mph
6 km/h
4 mph
6 km/h
4 mph
6 km/h
4 mph
6 km/h
6 mph
10 km/h
8 mph
13 km/h
9 mph
14 km/h
8 mph
13 km/h
7 mph
12 km/h
7 mph
11 km/h
6 mph
10 km/h
5 mph
8 km/h
4 mph
6 km/h
4 mph
6 km/h
4 mph
6 km/h
3 mph
5 km/h
3 mph
5 km/h
5 mph
8 km/h
0 mph
0 km/h
1 mph
1 km/h
2 mph
3 km/h
2 mph
4 km/h
2 mph
4 km/h
1 mph
1 km/h
0 mph
1 km/h
1 mph
1 km/h
1 mph
2 km/h
2 mph
3 km/h
1 mph
2 km/h
3 mph
5 km/h
4 mph
6 km/h
4 mph
7 km/h
5 mph
8 km/h
5 mph
8 km/h
5 mph
9 km/h
6 mph
9 km/h
0%0%0%0%0%0%0%0%0%0%0%0%0%0%0%0%0%0%0%0%0%0%0%0%0%0%0%0%0%0%0%0%0%0%0%0%0%0%0%0%0%0%0%0%0%0%0%0%
6 mi
10 km
6 mi
10 km
6 mi
10 km
6 mi
10 km
6 mi
10 km
6 mi
10 km
6 mi
10 km
6 mi
10 km
6 mi
10 km
6 mi
10 km
6 mi
10 km
6 mi
10 km
6 mi
10 km
6 mi
10 km
6 mi
10 km
6 mi
10 km
6 mi
10 km
6 mi
10 km
6 mi
10 km
6 mi
10 km
6 mi
10 km
6 mi
10 km
6 mi
10 km
6 mi
10 km
6 mi
10 km
6 mi
10 km
6 mi
10 km
6 mi
10 km
6 mi
10 km
6 mi
10 km
6 mi
10 km
6 mi
10 km
6 mi
10 km
6 mi
10 km
6 mi
10 km
6 mi
10 km
6 mi
10 km
6 mi
10 km
6 mi
10 km
6 mi
10 km
6 mi
10 km
6 mi
10 km
6 mi
10 km
6 mi
10 km
6 mi
10 km
6 mi
10 km
6 mi
10 km
6 mi
10 km

Day/Time
Weather
Condition
Temperature
Dew Point
Pressure
Humidity
Wind Direction
Wind Speed
Prob Precip %
Visibility
Prob Precip % = Probability of Precipitation.